Regional Weather Roundup
Issued by NWS Green Bay, WI

Home | Current Version | Previous Version | Graphics & Text | Print | Product List | Glossary Off
Versions: 1 2 3 4 5 6 7 8 9 10 11 12 13 14 15 16 17 18 19 20 21 22 23 24 25 26 27 28 29 30 31 32 33 34 35 36 37 38 39 40 41 42 43 44 45 46 47 48 49 50

000
ASUS43 KGRB 250500
RWRGRB

NORTH-CENTRAL AND NORTHEAST WISCONSIN REGIONAL WEATHER ROUNDUP
NATIONAL WEATHER SERVICE GREEN BAY WI
1200 AM CDT SAT MAR 25 2017

WIZ005-009-010>012-018-019-250600-
NORTH CENTRAL WISCONSIN

CITY           SKY/WX    TMP DP  RH WIND       PRES   REMARKS
IRONWOOD       CLOUDY    33  32  96 E9        30.22F FOG
MANITOWISH WTR NOT AVBL
ARBOR VITAE    NOT AVBL
EAGLE RIVER    NOT AVBL
LAND O LAKES   NOT AVBL
RHINELANDER    CLOUDY    34  32  92 E9        30.17F
PHILLIPS       NOT AVBL
ANTIGO         NOT AVBL
TOMAHAWK       NOT AVBL
MERRILL        NOT AVBL
$$

WIZ013-073-250600-
NORTHEAST WISCONSIN

CITY           SKY/WX    TMP DP  RH WIND       PRES   REMARKS
IRON MOUNTAIN  CLOUDY    34  30  85 N3        30.19F
MARINETTE        N/A    N/A N/A N/A MISG        N/A
$$

WIZ017-030-035>037-045-250600-
CENTRAL WISCONSIN

CITY           SKY/WX    TMP DP  RH WIND       PRES   REMARKS
MEDFORD        NOT AVBL
WAUSAU         CLOUDY    35  32  88 NE7       30.16R
MOSINEE        NOT AVBL
MARSHFIELD     CLOUDY    36  32  85 NE10      30.14R
WISC RAPIDS    CLOUDY    37  36  96 E8        30.17S
STEVENS POINT  NOT AVBL
WAUPACA        NOT AVBL
SHAWANO        NOT AVBL
CLINTONVILLE   NOT AVBL
WAUTOMA        LGT RAIN  36  35  96 NE9       30.18R
$$

WIZ038-039-048-051-250600-
FOX VALLEY

CITY           SKY/WX    TMP DP  RH WIND       PRES   REMARKS
NWS GREEN BAY  LGT RAIN  36  35  96 NE17      30.19R
APPLETON       NOT AVBL
OSHKOSH        RAIN      35  33  92 NE15      30.16F FOG
FOND DU LAC    LGT RAIN  37  33  85 NE10      30.15F
$$

WIZ022-050-052-250600-
EAST CENTRAL WISCONSIN

CITY           SKY/WX    TMP DP  RH WIND       PRES   REMARKS
EPHRAIM        NOT AVBL
WASHINGTON ISL NOT AVBL
STURGEON BAY   LGT RAIN  34  32  92 NE10      30.20R
MANITOWOC      NOT AVBL
SHEBOYGAN      LGT RAIN  36  33  89 NE15      30.16S
$$

LMZ563-521-522-541>543-250600-
LAKESHORE

STATION/POSITION TIME  TEMP    WIND        PRES    VSBY  WAVE
                       AIR SEA DIR/SP/G                  HT/PER
                 (UTC) (F)     (DEG/KT/KT) (MB)    (MI)  (FT/S)
SHEBOYGAN LKSHOR 0400   36      10/ 16/ 17 1021.7R
KEWAUNEE LKSHORE 0424   36      30/ 10/ 16 1021.4
NORTHPORT PIER   0430   34      10/ 12/ 14 1022.4F
SISTER BAY LKSHO 0405   34     360/ 14/ 19   N/A
CHAMBERS ISLAND  0440   33     350/ 15/ 18 1021.7F
MENOMINEE LKSHOR 0424   35     360/ 17/ 18 1021.2
$$




USA.gov is the U.S. government's official web portal to all federal, state and local government web resources and services.